Satellite: METEOR 2-18
Catalog number: 19851
Epoch time:      100334.76555093
Element set:     869 
Inclination:       82.5208 deg
RA of node:        63.4240 deg
Eccentricity:    0.0014128
Arg of perigee:    85.1652 deg
Mean anomaly:     275.1123 deg
Mean motion:   13.85109600 rev/day
Decay rate:    2.4399E-006 rev/day^2
Epoch rev:           59394
Checksum:              321

Satellite: METEOR 2-19
Catalog number: 20670
Epoch time:      100335.50783610
Element set:     412 
Inclination:       82.5447 deg
RA of node:       135.3148 deg
Eccentricity:    0.0017181
Arg of perigee:     9.9112 deg
Mean anomaly:     350.2378 deg
Mean motion:   13.84261689 rev/day
Decay rate:    2.0099E-006 rev/day^2
Epoch rev:           52686
Checksum:              308

Satellite: METEOR 2-20
Catalog number: 20826
Epoch time:      100335.57382544
Element set:     386 
Inclination:       82.5268 deg
RA of node:        69.2111 deg
Eccentricity:    0.0012490
Arg of perigee:   279.1415 deg
Mean anomaly:      80.8332 deg
Mean motion:   13.83806152 rev/day
Decay rate:    1.9500E-006 rev/day^2
Epoch rev:           51389
Checksum:              301

Satellite: METEOR 2-21
Catalog number: 22782
Epoch time:      100355.24172424
Element set:     870 
Inclination:       82.5480 deg
RA of node:       121.6561 deg
Eccentricity:    0.0023060
Arg of perigee:    42.9888 deg
Mean anomaly:     317.3069 deg
Mean motion:   13.83302816 rev/day
Decay rate:    1.4800E-006 rev/day^2
Epoch rev:           36881
Checksum:              297

Satellite: METEOR 3-2
Catalog number: 19336
Epoch time:      100334.84347162
Element set:     886 
Inclination:       82.5398 deg
RA of node:        95.3390 deg
Eccentricity:    0.0017432
Arg of perigee:   127.2979 deg
Mean anomaly:     232.9742 deg
Mean motion:   13.17027082 rev/day
Decay rate:    5.1000E-007 rev/day^2
Epoch rev:           59359
Checksum:              325

Satellite: METEOR 3-3
Catalog number: 20305
Epoch time:      100335.34309882
Element set:     682 
Inclination:       82.5453 deg
RA of node:        79.5627 deg
Eccentricity:    0.0005908
Arg of perigee:   300.7923 deg
Mean anomaly:      59.2417 deg
Mean motion:   13.04463442 rev/day
Decay rate:    4.4000E-007 rev/day^2
Epoch rev:           53034
Checksum:              288

Satellite: METEOR 3-4
Catalog number: 21232
Epoch time:      100334.92221318
Element set:     286 
Inclination:       82.5380 deg
RA of node:       302.6726 deg
Eccentricity:    0.0014329
Arg of perigee:    65.5728 deg
Mean anomaly:     294.6866 deg
Mean motion:   13.16515678 rev/day
Decay rate:    5.1000E-007 rev/day^2
Epoch rev:           46158
Checksum:              305

Satellite: METEOR 3-6
Catalog number: 22969
Epoch time:      100334.95469042
Element set:     696 
Inclination:       82.5640 deg
RA of node:       192.6755 deg
Eccentricity:    0.0015143
Arg of perigee:   129.9934 deg
Mean anomaly:     230.2522 deg
Mean motion:   13.16806964 rev/day
Decay rate:    5.1000E-007 rev/day^2
Epoch rev:           32914
Checksum:              319

Satellite: METEOSAT 4
Catalog number: 19876
Epoch time:      100326.20341360
Element set:     513 
Inclination:        5.2307 deg
RA of node:        66.5398 deg
Eccentricity:    0.0017831
Arg of perigee:   302.6541 deg
Mean anomaly:      56.9944 deg
Mean motion:    0.97109501 rev/day
Decay rate:   -9.5000E-007 rev/day^2
Epoch rev:            2233
Checksum:              278

Satellite: METEOSAT 5
Catalog number: 21140
Epoch time:      100355.71995971
Element set:     920 
Inclination:        3.9100 deg
RA of node:        74.4883 deg
Eccentricity:    0.0001407
Arg of perigee:   243.5563 deg
Mean anomaly:      93.5227 deg
Mean motion:    1.00275545 rev/day
Decay rate:    2.0999E-007 rev/day^2
Epoch rev:            3812
Checksum:              288

Satellite: METEOSAT 6
Catalog number: 22912
Epoch time:      100355.20695537
Element set:     546 
Inclination:        0.8565 deg
RA of node:        77.5003 deg
Eccentricity:    0.0003432
Arg of perigee:   225.1702 deg
Mean anomaly:     211.8690 deg
Mean motion:    1.00270939 rev/day
Decay rate:   -7.5999E-007 rev/day^2
Epoch rev:            2437
Checksum:              294

Satellite: METEOSAT 7
Catalog number: 24932
Epoch time:      100354.50021934
Element set:     739 
Inclination:        0.3198 deg
RA of node:       308.0377 deg
Eccentricity:    0.0001097
Arg of perigee:   343.9137 deg
Mean anomaly:     336.4983 deg
Mean motion:    1.00273601 rev/day
Decay rate:   -5.9999E-008 rev/day^2
Epoch rev:            1208
Checksum:              304

Satellite: UO-11
Catalog number: 14781
Epoch time:      100356.37758863
Element set:     372 
Inclination:       98.0095 deg
RA of node:       316.4833 deg
Eccentricity:    0.0009626
Arg of perigee:   219.7579 deg
Mean anomaly:     140.2927 deg
Mean motion:   14.73171613 rev/day
Decay rate:    2.2120E-005 rev/day^2
Epoch rev:           89985
Checksum:              339

Satellite: UOSAT-12
Catalog number: 25693
Epoch time:      100356.23170429
Element set:     397 
Inclination:       64.5608 deg
RA of node:       260.0920 deg
Eccentricity:    0.0050486
Arg of perigee:   270.4704 deg
Mean anomaly:      89.0613 deg
Mean motion:   14.73545356 rev/day
Decay rate:   -3.3000E-007 rev/day^2
Epoch rev:            8986
Checksum:              309

Satellite: RS-10/11
Catalog number: 18129
Epoch time:      100355.55560787
Element set:     912 
Inclination:       82.9253 deg
RA of node:        10.7535 deg
Eccentricity:    0.0010175
Arg of perigee:   263.0521 deg
Mean anomaly:      96.9477 deg
Mean motion:   13.72537204 rev/day
Decay rate:    7.6999E-007 rev/day^2
Epoch rev:           67613
Checksum:              330

Satellite: FENGYUN 1C
Catalog number: 25730
Epoch time:      100354.96573818
Element set:     159 
Inclination:       98.7181 deg
RA of node:        30.8841 deg
Eccentricity:    0.0015107
Arg of perigee:    89.7161 deg
Mean anomaly:     270.5740 deg
Mean motion:   14.10345802 rev/day
Decay rate:   -2.9000E-007 rev/day^2
Epoch rev:            8315
Checksum:              293

Satellite: HUBBLE
Catalog number: 20580
Epoch time:      100348.86440106
Element set:     430 
Inclination:       28.4684 deg
RA of node:       154.4470 deg
Eccentricity:    0.0012482
Arg of perigee:   166.5401 deg
Mean anomaly:     193.5523 deg
Mean motion:   14.92374623 rev/day
Decay rate:    2.5260E-005 rev/day^2
Epoch rev:           38326
Checksum:              282

Satellite: RESURS
Catalog number: 25394
Epoch time:      100356.17875174
Element set:     922 
Inclination:       98.7068 deg
RA of node:        69.8615 deg
Eccentricity:    0.0001059
Arg of perigee:   195.0549 deg
Mean anomaly:     165.0596 deg
Mean motion:   14.22980912 rev/day
Decay rate:    1.7800E-006 rev/day^2
Epoch rev:           12723
Checksum:              327

Satellite: UARS
Catalog number: 21701
Epoch time:      100348.93634354
Element set:     210 
Inclination:       56.9847 deg
RA of node:         7.5227 deg
Eccentricity:    0.0004494
Arg of perigee:    93.4853 deg
Mean anomaly:     266.6704 deg
Mean motion:   14.99144289 rev/day
Decay rate:    8.3400E-006 rev/day^2
Epoch rev:           50609
Checksum:              313

Frase del giorno:
* Stai usando Windows oppure quello e' un XT?

Buon Natale e Felice Anno Nuovo
73 Ciao a tutti Renzo.


li, gioved¨ 21 dicembre 2000  22.38 UTC

  /___/____/
 /    /   /
     ||
     ||I6KZR  Fermo, Italy
     ||BBS    I6KZR@I6DH.IMAR.ITA.EU
     ||e_mail i6kzr@arrl.net


Message sent with Sally V3.1. Windows packet software.


Read previous mail | Read next mail


 17.12.2025 01:07:01lGo back Go up